Location: Cartignies
(50.0929°N, 3.8447°E)
Time: 13:39:30
(UTC+00:00)

NOSS 2-3 (D) - Pass Details

Date: 12 January 2026
Orbit: 497 x 1701 km, 63.3° (Epoch: 24 April)

Event Time Altitude Azimuth Distance (km) Brightness Sun altitude
Rises 17:30:21 0° 316° (NW) 2,986 7.4 -12.9°
Reaches altitude 10° 17:32:23 10° 316° (NW) 2,187 6.7 -13.2°
Maximum altitude 17:37:23 85° 228° (SW) 867 4.3 -14.0°
Drops below altitude 10° 17:44:09 10° 141° (SE) 2,924 6.8 -15.0°
Sets 17:47:14 0° 141° (SE) 4,072 7.5 -15.5°
